Volver al catálogo

STARLINK-4040

ActivoComunicacionesVLEO
NORAD 53151·PAYLOAD·🇺🇸 United States

Lanzado Jul 17, 2022 desde Cape Canaveral Space Force Station

Loading…

Próximos Pases (próximas 24 horas)

TLE

ActualizadoSource: CelesTrak SupGP

Época: Sep 14, 2026, 20:41 UTC

1 53151C 22083V   26257.86229167  .00016972  00000+0  48554-3 0  2573
2 53151  53.1591  23.1899 0001246  71.8793 284.1574 15.35392425    12

Sigue STARLINK-4040 en tiempo real con AllMySat

Download on the App Store